Location: 02324
(41.9834°N, 70.9022°W)
Time: 12:22:06
(UTC-05:00)

H-2A R/B - Pass Details

Date: 17 March 2017
Orbit: 505 x 544 km, 97.3° (Epoch: 18 November)

Event Time Altitude Azimuth Distance (km) Brightness Sun altitude
Rises 19:52:48 0° 163° (SSE) 2,642 6.0 -11.9°
Reaches altitude 10° 19:54:53 10° 161° (SSE) 1,766 5.1 -12.3°
Maximum altitude 19:58:41 75° 76° (ENE) 556 2.6 -13.0°
Drops below altitude 10° 20:02:35 10° 352° (N) 1,805 5.7 -13.7°
Sets 20:04:43 0° 350° (N) 2,708 6.6 -14.1°
